UAL1471 KEWR-MDSD

Flight info

Callsign UAL1471
Flight time N/A
Altitude 35000
Route ELVAE DCT NECCK DCT DIXIE Y481 OHRYN/N0455F360 Y488 WEBBB/M079F360 Y488 HOBOH/M079F350 Y488 CHUBY/M079F360 Y488 SAUCR/M079F350 L453 LAMER/N0464F350 L453 RODRK/N0451F360 DCT POKEG UT17 KOBET
Aircraft B38M/M-SDE1FGHILORVWXY/HB1

Departure

Time N/A
Airport Newark Liberty International Airport (KEWR)

Arrival

Time 2026-05-07 01:54
Airport Las Américas International Airport (MDSD)
Time Latitude Longitude Altitude Speed Heading
2026-05-06 23:05 39.76268 -72.60850 34888 ft 481 kts 107°
2026-05-06 23:05 39.75166 -72.56756 35222 ft 480 kts 108°
2026-05-06 23:05 39.74069 -72.52690 35487 ft 479 kts 108°
2026-05-06 23:06 39.72964 -72.48600 35748 ft 479 kts 108°
2026-05-06 23:06 39.71860 -72.44515 35969 ft 479 kts 108°
2026-05-06 23:06 39.70748 -72.40444 36214 ft 478 kts 109°
2026-05-06 23:06 39.69627 -72.36368 36443 ft 478 kts 109°
2026-05-06 23:07 39.68508 -72.32302 36630 ft 479 kts 109°
2026-05-06 23:07 39.67399 -72.28273 36783 ft 480 kts 109°
2026-05-06 23:07 39.66260 -72.24144 36929 ft 480 kts 109°
2026-05-06 23:07 39.64957 -72.20219 36880 ft 478 kts 122°
2026-05-06 23:08 39.62987 -72.16869 36918 ft 472 kts 134°
2026-05-06 23:08 39.58570 -72.10498 36937 ft 477 kts 134°
2026-05-06 23:09 39.54074 -72.04168 36923 ft 476 kts 134°
2026-05-06 23:09 39.49558 -71.97876 36935 ft 477 kts 134°
2026-05-06 23:10 39.45035 -71.91592 36929 ft 476 kts 134°
2026-05-06 23:10 39.40513 -71.85321 36940 ft 476 kts 134°
2026-05-06 23:11 39.35992 -71.79066 36934 ft 475 kts 135°
2026-05-06 23:11 39.31492 -71.72851 36953 ft 476 kts 135°
2026-05-06 23:12 39.26964 -71.66611 36942 ft 475 kts 135°
2026-05-06 23:12 39.22327 -71.60534 36943 ft 472 kts 146°
2026-05-06 23:12 39.19536 -71.58390 36966 ft 464 kts 161°
2026-05-06 23:13 39.16471 -71.57236 36948 ft 456 kts 176°
2026-05-06 23:13 39.10184 -71.57058 36930 ft 446 kts 197°
2026-05-06 23:14 39.04429 -71.59589 36949 ft 442 kts 204°
2026-05-06 23:14 38.98587 -71.62089 36960 ft 443 kts 203°
2026-05-06 23:15 38.92715 -71.64542 36957 ft 443 kts 203°
2026-05-06 23:15 38.87835 -71.66570 36967 ft 443 kts 203°
2026-05-06 23:16 38.81930 -71.69022 36960 ft 443 kts 203°
2026-05-06 23:16 38.76095 -71.71438 36972 ft 443 kts 203°
2026-05-06 23:17 38.70226 -71.73866 36962 ft 444 kts 203°
2026-05-06 23:17 38.64382 -71.76279 36975 ft 443 kts 203°
2026-05-06 23:18 38.58499 -71.78703 36965 ft 444 kts 203°
2026-05-06 23:18 38.52648 -71.81111 36977 ft 444 kts 203°
2026-05-06 23:19 38.46755 -71.83531 36972 ft 445 kts 203°
2026-05-06 23:19 38.40866 -71.85946 36981 ft 445 kts 203°
2026-05-06 23:20 38.34964 -71.88362 36978 ft 445 kts 204°
2026-05-06 23:20 38.29056 -71.90776 36990 ft 445 kts 204°
2026-05-06 23:21 38.23181 -71.93173 36977 ft 446 kts 204°
2026-05-06 23:21 38.17265 -71.95581 36985 ft 446 kts 204°
2026-05-06 23:22 38.11343 -71.97989 36980 ft 446 kts 204°
2026-05-06 23:22 38.05418 -72.00394 36989 ft 447 kts 204°
2026-05-06 23:23 37.99501 -72.02791 36980 ft 447 kts 204°
2026-05-06 23:23 37.93595 -72.05180 36992 ft 447 kts 204°
2026-05-06 23:24 37.87656 -72.07578 36985 ft 447 kts 204°
2026-05-06 23:24 37.81711 -72.09975 36988 ft 448 kts 204°
2026-05-06 23:25 37.75808 -72.12351 36981 ft 448 kts 204°
2026-05-06 23:25 37.69861 -72.14740 36991 ft 448 kts 204°
2026-05-06 23:26 37.63905 -72.17129 36982 ft 449 kts 204°
2026-05-06 23:26 37.57938 -72.19517 36993 ft 449 kts 204°
2026-05-06 23:27 37.52002 -72.21890 36986 ft 450 kts 204°
2026-05-06 23:27 37.46035 -72.24271 36994 ft 450 kts 204°
2026-05-06 23:28 37.40063 -72.26651 36988 ft 450 kts 204°
2026-05-06 23:28 37.34076 -72.29032 37004 ft 451 kts 204°
2026-05-06 23:28 37.31077 -72.30223 36604 ft 451 kts 207°
2026-05-06 23:29 37.28091 -72.31402 36835 ft 448 kts 208°
2026-05-06 23:29 37.25159 -72.32570 37028 ft 447 kts 208°
2026-05-06 23:29 37.22195 -72.33745 37001 ft 445 kts 208°
2026-05-06 23:30 37.16303 -72.36077 37007 ft 445 kts 208°
2026-05-06 23:30 37.10384 -72.38416 37008 ft 446 kts 208°
2026-05-06 23:31 37.04442 -72.40760 37012 ft 447 kts 208°
2026-05-06 23:31 36.98495 -72.43102 37018 ft 448 kts 208°
2026-05-06 23:32 36.92531 -72.45446 37010 ft 449 kts 208°
2026-05-06 23:32 36.86562 -72.47789 37014 ft 450 kts 208°
2026-05-06 23:33 36.80625 -72.50116 37024 ft 451 kts 208°
2026-05-06 23:33 36.74628 -72.52462 37026 ft 452 kts 208°
2026-05-06 23:33 36.71541 -72.53388 37004 ft 466 kts 195°
2026-05-06 23:34 36.68223 -72.53329 37035 ft 486 kts 179°
2026-05-06 23:34 36.61525 -72.51320 37034 ft 498 kts 173°
2026-05-06 23:35 36.54836 -72.49162 37040 ft 500 kts 173°
2026-05-06 23:35 36.48104 -72.46967 37045 ft 500 kts 173°
2026-05-06 23:36 36.41355 -72.44769 37046 ft 501 kts 173°
2026-05-06 23:36 36.34612 -72.42576 37052 ft 501 kts 173°
2026-05-06 23:37 36.27863 -72.40386 37055 ft 501 kts 172°
2026-05-06 23:37 36.21106 -72.38197 37061 ft 502 kts 172°
2026-05-06 23:38 36.14387 -72.36024 37060 ft 503 kts 172°
2026-05-06 23:38 36.07615 -72.33837 37062 ft 503 kts 172°
2026-05-06 23:39 36.00823 -72.32815 37086 ft 483 kts 189°
2026-05-06 23:39 35.94051 -72.32833 37071 ft 487 kts 189°
2026-05-06 23:40 35.87244 -72.32916 37067 ft 488 kts 189°
2026-05-06 23:40 35.80484 -72.33013 37076 ft 488 kts 189°
2026-05-06 23:41 35.73677 -72.33111 37074 ft 489 kts 189°
2026-05-06 23:41 35.66889 -72.33208 37079 ft 490 kts 189°
2026-05-06 23:42 35.60072 -72.33306 37089 ft 491 kts 189°
2026-05-06 23:42 35.53238 -72.33404 37081 ft 491 kts 189°
2026-05-06 23:43 35.46393 -72.33503 37080 ft 492 kts 189°
2026-05-06 23:43 35.39533 -72.33601 37087 ft 492 kts 189°
2026-05-06 23:44 35.32690 -72.33698 37090 ft 492 kts 189°
2026-05-06 23:44 35.25871 -72.33796 37089 ft 493 kts 189°
2026-05-06 23:45 35.19012 -72.33893 37091 ft 493 kts 189°
2026-05-06 23:45 35.12133 -72.33991 37094 ft 493 kts 189°
2026-05-06 23:46 35.05260 -72.34089 37092 ft 494 kts 188°
2026-05-06 23:46 34.98378 -72.34187 37096 ft 494 kts 189°
2026-05-06 23:47 34.91635 -72.35063 37103 ft 486 kts 196°
2026-05-06 23:47 34.84925 -72.36151 37098 ft 486 kts 196°
2026-05-06 23:48 34.78261 -72.37238 37099 ft 487 kts 196°
2026-05-06 23:48 34.71494 -72.38054 37081 ft 498 kts 183°
2026-05-06 23:49 34.64536 -72.37312 37092 ft 502 kts 182°
2026-05-06 23:49 34.57574 -72.36571 37106 ft 503 kts 182°
2026-05-06 23:50 34.50601 -72.35815 37108 ft 503 kts 182°
2026-05-06 23:50 34.40126 -72.34681 37111 ft 504 kts 182°
2026-05-06 23:51 34.33129 -72.33924 37111 ft 504 kts 181°
2026-05-06 23:51 34.26183 -72.33175 37112 ft 504 kts 181°
2026-05-06 23:52 34.19182 -72.32421 37116 ft 504 kts 181°
2026-05-06 23:52 34.12177 -72.31668 37117 ft 505 kts 181°
2026-05-06 23:53 34.05211 -72.30920 37116 ft 505 kts 181°
2026-05-06 23:53 33.98207 -72.30111 37116 ft 509 kts 175°
2026-05-06 23:54 33.91245 -72.28252 37119 ft 513 kts 172°
2026-05-06 23:54 33.84289 -72.26344 37133 ft 513 kts 172°
2026-05-06 23:55 33.77325 -72.24433 37133 ft 513 kts 172°
2026-05-06 23:55 33.70348 -72.22521 37133 ft 513 kts 172°
2026-05-06 23:56 33.63429 -72.20629 37131 ft 513 kts 172°
2026-05-06 23:56 33.56436 -72.18719 37135 ft 513 kts 172°
2026-05-06 23:57 33.49461 -72.16817 37139 ft 514 kts 172°
2026-05-06 23:57 33.42492 -72.14920 37139 ft 514 kts 172°
2026-05-06 23:58 33.35565 -72.13038 37143 ft 514 kts 172°
2026-05-06 23:58 33.28578 -72.11142 37146 ft 514 kts 172°
2026-05-06 23:59 33.21603 -72.09253 37147 ft 514 kts 172°
2026-05-06 23:59 33.14607 -72.07361 37149 ft 514 kts 172°
2026-05-07 00:00 33.07674 -72.05489 37148 ft 514 kts 172°
2026-05-07 00:00 33.01826 -72.03913 37147 ft 514 kts 172°
2026-05-07 00:01 32.93709 -72.01728 37150 ft 514 kts 172°
2026-05-07 00:01 32.86718 -71.99850 37150 ft 514 kts 172°
2026-05-07 00:02 32.80908 -71.98292 37157 ft 514 kts 172°
2026-05-07 00:02 32.73922 -71.96420 37161 ft 514 kts 172°
2026-05-07 00:03 32.65780 -71.94244 37160 ft 515 kts 172°
2026-05-07 00:03 32.59968 -71.92691 37152 ft 515 kts 172°
2026-05-07 00:04 32.52972 -71.90827 37153 ft 515 kts 172°
2026-05-07 00:04 32.45979 -71.88966 37151 ft 515 kts 172°
2026-05-07 00:05 32.38973 -71.87104 37157 ft 515 kts 172°
2026-05-07 00:05 32.32007 -71.85256 37156 ft 516 kts 171°
2026-05-07 00:06 32.25008 -71.83402 37158 ft 515 kts 171°
2026-05-07 00:06 32.17985 -71.81544 37155 ft 515 kts 171°
2026-05-07 00:07 32.10983 -71.79695 37158 ft 516 kts 171°
2026-05-07 00:07 32.03971 -71.77847 37157 ft 516 kts 171°
2026-05-07 00:08 31.96969 -71.76004 37161 ft 516 kts 171°
2026-05-07 00:08 31.89956 -71.74161 37161 ft 516 kts 171°
2026-05-07 00:09 31.82985 -71.72332 37161 ft 516 kts 171°
2026-05-07 00:09 31.75967 -71.70494 37164 ft 516 kts 171°
2026-05-07 00:10 31.68941 -71.68656 37163 ft 516 kts 171°
2026-05-07 00:10 31.61974 -71.66837 37166 ft 516 kts 171°
2026-05-07 00:11 31.54950 -71.65005 37162 ft 516 kts 171°
2026-05-07 00:11 31.47939 -71.63180 37161 ft 516 kts 171°
2026-05-07 00:12 31.40928 -71.61357 37164 ft 516 kts 171°
2026-05-07 00:12 31.33911 -71.59536 37165 ft 516 kts 171°
2026-05-07 00:13 31.26899 -71.57719 37168 ft 516 kts 171°
2026-05-07 00:13 31.19888 -71.55905 37167 ft 516 kts 171°
2026-05-07 00:14 31.12871 -71.54092 37163 ft 516 kts 171°
2026-05-07 00:14 31.05854 -71.52281 37160 ft 516 kts 171°
2026-05-07 00:15 30.98882 -71.50485 37165 ft 516 kts 171°
2026-05-07 00:15 30.91860 -71.48680 37164 ft 516 kts 171°
2026-05-07 00:16 30.84880 -71.46887 37163 ft 516 kts 171°
2026-05-07 00:16 30.77847 -71.45084 37164 ft 516 kts 171°
2026-05-07 00:17 30.70835 -71.43288 37162 ft 516 kts 171°
2026-05-07 00:17 30.63819 -71.41494 37171 ft 516 kts 171°
2026-05-07 00:18 30.56802 -71.39703 37166 ft 516 kts 171°
2026-05-07 00:18 30.49793 -71.37916 37168 ft 516 kts 171°
2026-05-07 00:19 30.42822 -71.36142 37167 ft 516 kts 171°
2026-05-07 00:19 30.35815 -71.34361 37167 ft 516 kts 171°
2026-05-07 00:20 30.28800 -71.32581 37168 ft 516 kts 171°
2026-05-07 00:20 30.21810 -71.30809 37165 ft 516 kts 171°
2026-05-07 00:21 30.14783 -71.29031 37166 ft 516 kts 171°
2026-05-07 00:21 30.07766 -71.27258 37162 ft 516 kts 171°
2026-05-07 00:22 30.00733 -71.25483 37163 ft 516 kts 171°
2026-05-07 00:22 29.93819 -71.23741 37161 ft 516 kts 171°
2026-05-07 00:23 29.86797 -71.21975 37162 ft 516 kts 171°
2026-05-07 00:23 29.79761 -71.20207 37163 ft 516 kts 171°
2026-05-07 00:24 29.72746 -71.18447 37161 ft 516 kts 171°
2026-05-07 00:24 29.65722 -71.16688 37162 ft 516 kts 171°
2026-05-07 00:25 29.58700 -71.14931 37161 ft 516 kts 171°
2026-05-07 00:25 29.51720 -71.13188 37158 ft 516 kts 171°
2026-05-07 00:26 29.44698 -71.11436 37158 ft 516 kts 171°
2026-05-07 00:26 29.37676 -71.09687 37161 ft 516 kts 171°
2026-05-07 00:27 29.30644 -71.07938 37158 ft 516 kts 171°
2026-05-07 00:27 29.23611 -71.06191 37161 ft 516 kts 171°
2026-05-07 00:28 29.16618 -71.04456 37163 ft 516 kts 171°
2026-05-07 00:28 29.09587 -71.02714 37160 ft 517 kts 171°
2026-05-07 00:29 29.02545 -71.00972 37156 ft 517 kts 171°
2026-05-07 00:30 28.88492 -70.97503 37163 ft 517 kts 170°
2026-05-07 00:30 28.81462 -70.95773 37166 ft 517 kts 170°
2026-05-07 00:31 28.74468 -70.94053 37158 ft 517 kts 170°
2026-05-07 00:31 28.67425 -70.92323 37162 ft 517 kts 170°
2026-05-07 00:32 28.60386 -70.90597 37154 ft 517 kts 170°
2026-05-07 00:32 28.53382 -70.88882 37160 ft 517 kts 170°
2026-05-07 00:33 28.46349 -70.87161 37156 ft 517 kts 170°
2026-05-07 00:33 28.39297 -70.85439 37155 ft 517 kts 170°
2026-05-07 00:34 28.32259 -70.83722 37157 ft 517 kts 170°
2026-05-07 00:34 28.25268 -70.82019 37154 ft 517 kts 170°
2026-05-07 00:35 28.18228 -70.80307 37158 ft 517 kts 170°
2026-05-07 00:35 28.11235 -70.78608 37155 ft 517 kts 170°
2026-05-07 00:36 28.04188 -70.76898 37154 ft 517 kts 170°
2026-05-07 00:36 27.97146 -70.75192 37152 ft 517 kts 170°
2026-05-07 00:37 27.90106 -70.73488 37152 ft 517 kts 170°
2026-05-07 00:37 27.83109 -70.71797 37150 ft 517 kts 170°
2026-05-07 00:38 27.76049 -70.70094 37150 ft 517 kts 170°
2026-05-07 00:38 27.68998 -70.68394 37153 ft 517 kts 170°
2026-05-07 00:39 27.61954 -70.66699 37147 ft 518 kts 170°
2026-05-07 00:39 27.54914 -70.65007 37150 ft 518 kts 170°
2026-05-07 00:40 27.47905 -70.63324 37148 ft 518 kts 170°
2026-05-07 00:40 27.40850 -70.61633 37147 ft 518 kts 170°
2026-05-07 00:41 27.33795 -70.59943 37147 ft 518 kts 170°
2026-05-07 00:41 27.26740 -70.58257 37148 ft 518 kts 169°
2026-05-07 00:42 27.19740 -70.56585 37141 ft 518 kts 169°
2026-05-07 00:42 27.12680 -70.54901 37148 ft 518 kts 169°
2026-05-07 00:43 27.05632 -70.53222 37145 ft 518 kts 169°
2026-05-07 00:43 26.98585 -70.51546 37140 ft 518 kts 169°
2026-05-07 00:44 26.91526 -70.49869 37139 ft 518 kts 169°
2026-05-07 00:44 26.84522 -70.48207 37136 ft 518 kts 169°
2026-05-07 00:45 26.77480 -70.46538 37139 ft 518 kts 169°
2026-05-07 00:45 26.70417 -70.44866 37134 ft 518 kts 169°
2026-05-07 00:46 26.63367 -70.43200 37134 ft 518 kts 169°
2026-05-07 00:46 26.56314 -70.41534 37139 ft 518 kts 169°
2026-05-07 00:47 26.49263 -70.39872 37136 ft 518 kts 169°
2026-05-07 00:47 26.42199 -70.38209 37144 ft 518 kts 169°
2026-05-07 00:48 26.35177 -70.36557 37141 ft 518 kts 169°
2026-05-07 00:48 26.28115 -70.34898 37135 ft 518 kts 169°
2026-05-07 00:49 26.21050 -70.33241 37129 ft 518 kts 169°
2026-05-07 00:49 26.13986 -70.31585 37142 ft 518 kts 169°
2026-05-07 00:50 26.06961 -70.29941 37138 ft 518 kts 169°
2026-05-07 00:50 25.99899 -70.28291 37139 ft 518 kts 169°
2026-05-07 00:51 25.92835 -70.26641 37139 ft 518 kts 169°
2026-05-07 00:51 25.86961 -70.25272 37136 ft 518 kts 169°
2026-05-07 00:52 25.79891 -70.23624 37132 ft 518 kts 169°
2026-05-07 00:52 25.72820 -70.21980 37131 ft 518 kts 169°
2026-05-07 00:53 25.65750 -70.20337 37135 ft 519 kts 169°
2026-05-07 00:53 25.58683 -70.18697 37135 ft 519 kts 169°
2026-05-07 00:54 25.51665 -70.17070 37133 ft 518 kts 169°
2026-05-07 00:54 25.44585 -70.15431 37128 ft 518 kts 169°
2026-05-07 00:55 25.37522 -70.13797 37132 ft 518 kts 169°
2026-05-07 00:55 25.30503 -70.12176 37128 ft 518 kts 169°
2026-05-07 00:56 25.23414 -70.10540 37126 ft 518 kts 169°
2026-05-07 00:56 25.16336 -70.08908 37127 ft 518 kts 169°
2026-05-07 00:57 25.09305 -70.07290 37129 ft 518 kts 168°
2026-05-07 00:57 25.02237 -70.05665 37131 ft 518 kts 168°
2026-05-07 00:58 24.98678 -70.05080 37119 ft 516 kts 179°
2026-05-07 00:58 24.95087 -70.04940 37135 ft 517 kts 179°
2026-05-07 00:58 24.87900 -70.04595 37128 ft 517 kts 179°
2026-05-07 00:59 24.77179 -70.04100 37128 ft 516 kts 179°
2026-05-07 01:00 24.69993 -70.03769 37128 ft 516 kts 179°
2026-05-07 01:00 24.62798 -70.03439 37129 ft 516 kts 179°
2026-05-07 01:01 24.55634 -70.03110 37125 ft 515 kts 179°
2026-05-07 01:01 24.48503 -70.02783 37124 ft 515 kts 179°
2026-05-07 01:02 24.41350 -70.02455 37120 ft 514 kts 179°
2026-05-07 01:02 24.34193 -70.02128 37122 ft 514 kts 179°
2026-05-07 01:03 24.27041 -70.01801 37122 ft 514 kts 179°
2026-05-07 01:03 24.19945 -70.01477 37124 ft 513 kts 179°
2026-05-07 01:04 24.12807 -70.01523 37125 ft 512 kts 182°
2026-05-07 01:04 24.05669 -70.01609 37123 ft 512 kts 182°
2026-05-07 01:05 23.98546 -70.01683 37115 ft 512 kts 182°
2026-05-07 01:05 23.91449 -70.01756 37124 ft 512 kts 182°
2026-05-07 01:06 23.84319 -70.01829 37131 ft 512 kts 182°
2026-05-07 01:06 23.77201 -70.01903 37123 ft 511 kts 182°
2026-05-07 01:07 23.70069 -70.01976 37124 ft 511 kts 182°
2026-05-07 01:07 23.62992 -70.02048 37119 ft 511 kts 182°
2026-05-07 01:08 23.55870 -70.02121 37123 ft 511 kts 182°
2026-05-07 01:08 23.48755 -70.02194 37124 ft 510 kts 182°
2026-05-07 01:09 23.41650 -70.02266 37119 ft 510 kts 182°
2026-05-07 01:09 23.34586 -70.02339 37119 ft 510 kts 182°
2026-05-07 01:10 23.27494 -70.02411 37119 ft 510 kts 182°
2026-05-07 01:10 23.20386 -70.02483 37119 ft 510 kts 182°
2026-05-07 01:11 23.13291 -70.02555 37114 ft 510 kts 182°
2026-05-07 01:11 23.06198 -70.02627 37116 ft 510 kts 182°
2026-05-07 01:12 22.99090 -70.02699 37115 ft 510 kts 182°
2026-05-07 01:12 22.92000 -70.02771 37114 ft 510 kts 182°
2026-05-07 01:13 22.84945 -70.02843 37114 ft 509 kts 182°
2026-05-07 01:13 22.77851 -70.02915 37111 ft 509 kts 182°
2026-05-07 01:14 22.70765 -70.02986 37112 ft 509 kts 182°
2026-05-07 01:14 22.63667 -70.03058 37108 ft 509 kts 182°
2026-05-07 01:15 22.56578 -70.03129 37109 ft 509 kts 182°
2026-05-07 01:15 22.49488 -70.03201 37111 ft 509 kts 182°
2026-05-07 01:16 22.42399 -70.03272 37111 ft 509 kts 182°
2026-05-07 01:16 22.35354 -70.03343 37107 ft 509 kts 182°
2026-05-07 01:17 22.28255 -70.03414 37107 ft 509 kts 182°
2026-05-07 01:17 22.21165 -70.03485 37105 ft 509 kts 182°
2026-05-07 01:18 22.14078 -70.03557 37103 ft 509 kts 182°
2026-05-07 01:18 22.07016 -70.03627 37104 ft 509 kts 182°
2026-05-07 01:19 21.99909 -70.03698 37104 ft 510 kts 182°
2026-05-07 01:19 21.92806 -70.03769 37100 ft 510 kts 182°
2026-05-07 01:20 21.85711 -70.03840 37101 ft 510 kts 182°
2026-05-07 01:20 21.78652 -70.03911 37097 ft 510 kts 182°
2026-05-07 01:21 21.71556 -70.03981 37099 ft 510 kts 182°
2026-05-07 01:21 21.64459 -70.04052 37097 ft 510 kts 182°
2026-05-07 01:22 21.57352 -70.04122 37098 ft 510 kts 182°
2026-05-07 01:22 21.50250 -70.04193 37096 ft 510 kts 182°
2026-05-07 01:23 21.43147 -70.04264 37096 ft 510 kts 182°
2026-05-07 01:23 21.36027 -70.04334 37094 ft 510 kts 182°
2026-05-07 01:24 21.28946 -70.04404 37097 ft 511 kts 182°
2026-05-07 01:24 21.21831 -70.04475 37093 ft 511 kts 182°
2026-05-07 01:25 21.14757 -70.04545 37090 ft 510 kts 182°
2026-05-07 01:25 21.07647 -70.04615 37090 ft 511 kts 182°
2026-05-07 01:26 21.00550 -70.04685 37086 ft 511 kts 182°
2026-05-07 01:26 20.93441 -70.04755 37087 ft 511 kts 182°
2026-05-07 01:27 20.86324 -70.04825 37089 ft 511 kts 182°
2026-05-07 01:27 20.79206 -70.04895 37090 ft 511 kts 182°
2026-05-07 01:27 20.75693 -70.04929 36743 ft 507 kts 181°
2026-05-07 01:28 20.72141 -70.04964 35785 ft 514 kts 181°
2026-05-07 01:28 20.68536 -70.04999 34825 ft 522 kts 181°
2026-05-07 01:28 20.64898 -70.05035 34174 ft 521 kts 181°
2026-05-07 01:28 20.61296 -70.05070 33731 ft 514 kts 181°
2026-05-07 01:29 20.57740 -70.05105 33252 ft 507 kts 181°
2026-05-07 01:29 20.54230 -70.05140 32712 ft 503 kts 181°
2026-05-07 01:29 20.50738 -70.05174 32160 ft 500 kts 181°
2026-05-07 01:29 20.47269 -70.05208 31635 ft 496 kts 181°
2026-05-07 01:30 20.43832 -70.05242 31120 ft 492 kts 181°
2026-05-07 01:30 20.40418 -70.05275 30609 ft 489 kts 181°
2026-05-07 01:30 20.37070 -70.05308 30094 ft 486 kts 181°
2026-05-07 01:30 20.33683 -70.05341 29492 ft 483 kts 181°
2026-05-07 01:31 20.30337 -70.05374 28969 ft 478 kts 181°
2026-05-07 01:31 20.27019 -70.05406 28491 ft 473 kts 181°
2026-05-07 01:31 20.23740 -70.05438 28010 ft 469 kts 181°
2026-05-07 01:31 20.20528 -70.05470 27533 ft 464 kts 181°
2026-05-07 01:32 20.17328 -70.05230 26966 ft 462 kts 166°
2026-05-07 01:32 20.14334 -70.04048 26531 ft 455 kts 153°
2026-05-07 01:32 20.11477 -70.02644 26148 ft 450 kts 155°
2026-05-07 01:32 20.08621 -70.01302 25691 ft 446 kts 155°
2026-05-07 01:33 20.05794 -69.99968 25240 ft 443 kts 155°
2026-05-07 01:33 20.02983 -69.98642 24793 ft 440 kts 155°
2026-05-07 01:33 20.00189 -69.97324 24348 ft 438 kts 155°
2026-05-07 01:33 19.97407 -69.96012 23907 ft 435 kts 155°
2026-05-07 01:34 19.94648 -69.94711 23429 ft 433 kts 155°
2026-05-07 01:34 19.91904 -69.93418 22939 ft 430 kts 155°
2026-05-07 01:34 19.89216 -69.92152 22506 ft 425 kts 155°
2026-05-07 01:34 19.86522 -69.90883 22081 ft 421 kts 156°
2026-05-07 01:35 19.83852 -69.89626 21647 ft 417 kts 156°
2026-05-07 01:35 19.81206 -69.88381 21231 ft 413 kts 156°
2026-05-07 01:35 19.78586 -69.87149 20816 ft 410 kts 156°
2026-05-07 01:35 19.75983 -69.85924 20402 ft 407 kts 156°
2026-05-07 01:36 19.73398 -69.84710 19987 ft 404 kts 156°
2026-05-07 01:36 19.70836 -69.83505 19578 ft 401 kts 156°
2026-05-07 01:36 19.68290 -69.82309 19174 ft 399 kts 156°
2026-05-07 01:36 19.65836 -69.81157 18777 ft 397 kts 156°
2026-05-07 01:37 19.63317 -69.79975 18369 ft 395 kts 157°
2026-05-07 01:37 19.60817 -69.78801 17905 ft 392 kts 157°
2026-05-07 01:37 19.58329 -69.77634 17499 ft 389 kts 157°
2026-05-07 01:37 19.55862 -69.76477 17093 ft 385 kts 157°
2026-05-07 01:38 19.53418 -69.75331 16695 ft 382 kts 157°
2026-05-07 01:38 19.50987 -69.74192 16301 ft 379 kts 157°
2026-05-07 01:38 19.48586 -69.73067 15945 ft 375 kts 157°
2026-05-07 01:38 19.46181 -69.72042 15502 ft 373 kts 167°
2026-05-07 01:39 19.43626 -69.71815 15143 ft 366 kts 183°
2026-05-07 01:39 19.41120 -69.71874 14798 ft 363 kts 182°
2026-05-07 01:39 19.39420 -69.71902 14547 ft 361 kts 181°
2026-05-07 01:39 19.36916 -69.71947 14158 ft 359 kts 182°
2026-05-07 01:40 19.33609 -69.72008 13558 ft 358 kts 181°
2026-05-07 01:40 19.31925 -69.72039 13268 ft 357 kts 181°
2026-05-07 01:40 19.29454 -69.72086 12883 ft 353 kts 181°
2026-05-07 01:40 19.27004 -69.72132 12513 ft 350 kts 181°
2026-05-07 01:41 19.24581 -69.72177 12152 ft 347 kts 181°
2026-05-07 01:41 19.22204 -69.72222 11789 ft 344 kts 181°
2026-05-07 01:41 19.19821 -69.72266 11433 ft 341 kts 181°
2026-05-07 01:41 19.17453 -69.72311 11076 ft 339 kts 181°
2026-05-07 01:42 19.15104 -69.72355 10726 ft 336 kts 181°
2026-05-07 01:42 19.12771 -69.72399 10368 ft 334 kts 181°
2026-05-07 01:42 19.10456 -69.72442 10067 ft 330 kts 181°
2026-05-07 01:42 19.08175 -69.72485 9765 ft 326 kts 181°
2026-05-07 01:43 19.05906 -69.72527 9386 ft 325 kts 181°
2026-05-07 01:43 19.03672 -69.72569 9028 ft 317 kts 181°
2026-05-07 01:43 19.01493 -69.72610 8708 ft 308 kts 181°
2026-05-07 01:43 18.99378 -69.72649 8375 ft 300 kts 181°
2026-05-07 01:44 18.97339 -69.72688 8064 ft 293 kts 180°
2026-05-07 01:44 18.95323 -69.72725 7758 ft 286 kts 180°
2026-05-07 01:44 18.93377 -69.72762 7459 ft 280 kts 180°
2026-05-07 01:44 18.91449 -69.72798 7161 ft 273 kts 180°
2026-05-07 01:45 18.89570 -69.72833 6871 ft 267 kts 180°
2026-05-07 01:45 18.87728 -69.72867 6586 ft 261 kts 180°
2026-05-07 01:45 18.85925 -69.72901 6293 ft 257 kts 180°
2026-05-07 01:45 18.84151 -69.72934 6051 ft 254 kts 180°
2026-05-07 01:46 18.82390 -69.72967 5748 ft 253 kts 180°
2026-05-07 01:46 18.80636 -69.73000 5467 ft 251 kts 180°
2026-05-07 01:46 18.78911 -69.73032 5194 ft 249 kts 180°
2026-05-07 01:46 18.77185 -69.73064 4916 ft 247 kts 180°
2026-05-07 01:47 18.75483 -69.73096 4661 ft 241 kts 180°
2026-05-07 01:47 18.73834 -69.73127 4387 ft 232 kts 180°
2026-05-07 01:47 18.72245 -69.73157 4163 ft 223 kts 180°
2026-05-07 01:47 18.70779 -69.73184 4041 ft 210 kts 180°
2026-05-07 01:48 18.69365 -69.73211 3931 ft 197 kts 180°
2026-05-07 01:48 18.68057 -69.73236 3807 ft 184 kts 180°
2026-05-07 01:48 18.66811 -69.73259 3699 ft 177 kts 180°
2026-05-07 01:48 18.65575 -69.73281 3620 ft 177 kts 180°
2026-05-07 01:49 18.64339 -69.73304 3529 ft 177 kts 180°
2026-05-07 01:49 18.63145 -69.73326 3420 ft 164 kts 179°
2026-05-07 01:49 18.62034 -69.73347 3318 ft 157 kts 180°
2026-05-07 01:49 18.60945 -69.73327 3212 ft 155 kts 173°
2026-05-07 01:50 18.59875 -69.73144 3086 ft 155 kts 167°
2026-05-07 01:50 18.58842 -69.72865 2919 ft 154 kts 162°
2026-05-07 01:50 18.57816 -69.72529 2744 ft 154 kts 161°
2026-05-07 01:50 18.56803 -69.72170 2562 ft 153 kts 160°
2026-05-07 01:51 18.55794 -69.71803 2394 ft 153 kts 160°
2026-05-07 01:51 18.54792 -69.71436 2195 ft 152 kts 160°
2026-05-07 01:51 18.53792 -69.71069 2001 ft 152 kts 160°
2026-05-07 01:51 18.52799 -69.70704 1806 ft 151 kts 160°
2026-05-07 01:52 18.51807 -69.70341 1610 ft 151 kts 160°
2026-05-07 01:52 18.50828 -69.69979 1406 ft 151 kts 159°
2026-05-07 01:52 18.49838 -69.69617 1217 ft 150 kts 159°
2026-05-07 01:52 18.48850 -69.69253 1023 ft 151 kts 159°
2026-05-07 01:53 18.47858 -69.68888 830 ft 150 kts 160°
2026-05-07 01:53 18.46872 -69.68526 651 ft 150 kts 160°
2026-05-07 01:53 18.45890 -69.68164 461 ft 149 kts 160°
2026-05-07 01:53 18.44914 -69.67805 270 ft 148 kts 160°
2026-05-07 01:54 18.43926 -69.67440 85 ft 153 kts 160°
2026-05-07 01:54 18.43040 -69.67116 65 ft 112 kts 160°
2026-05-07 01:54 18.42555 -69.66940 70 ft 50 kts 160°
2026-05-07 01:54 18.42269 -69.66815 70 ft 38 kts 137°
2026-05-07 01:55 18.42261 -69.66632 67 ft 13 kts
2026-05-07 01:55 18.42350 -69.66663 68 ft 15 kts 340°
2026-05-07 01:55 18.42457 -69.66703 66 ft 18 kts 341°
2026-05-07 01:55 18.42579 -69.66747 70 ft 20 kts 341°
2026-05-07 01:56 18.42712 -69.66794 70 ft 21 kts 341°
2026-05-07 01:56 18.42855 -69.66850 66 ft 23 kts 339°
2026-05-07 01:56 18.42935 -69.66984 67 ft 25 kts 275°
2026-05-07 01:56 18.42954 -69.67178 64 ft 30 kts 276°
2026-05-07 01:57 18.42991 -69.67385 57 ft 25 kts 306°
2026-05-07 01:57 18.43092 -69.67494 63 ft 15 kts 286°
2026-05-07 01:57 18.43110 -69.67544 60 ft 3 kts 291°
2026-05-07 01:57 18.43112 -69.67552 67 ft 0 kts 291°